[[{"header":{"parameterUnit":"m.s-1","parameterCategory":1,"la1":30.2991,"la2":30.254,"lo1":-89.0895,"lo2":-89.0444,"dy":0.0017,"dx":0.0017,"nx":28,"ny":28,"refTime":"2024-02-25T09:00:00:Z","depth":0,"parameterNumber":2,"parameterNumberName":"U-component_of_WINDS"},"data":[0,0,0,0,0,0,0,0,0,0,0,0,0,0,0,0,0,0,0,0,0,0,0,0,0,0,0,0,0,0,0,0,0,0,0,0,0,0,0,0,0,0,0,0,0,0,0,0,0,0,0,0,0,0,0,0,0,0,0.591,0.591,0,0.5915,0.5915,0.5915,0.5889,0.5889,0.5888,0.5887,0.5893,0.5894,0.5895,0,0,0,0,0,0,0,0,0,0,0,0,0,0.5879,0.588,0.591,0.591,0.591,0.5915,0.5915,0.5915,0.589,0.5889,0.5888,0.5887,0.5893,0.5894,0.5895,0,0,0,0,0,0,0,0,0,0,0,0,0,0.5889,0.588,0.591,0.5898,0.5897,0.5915,0.5915,0.5916,0.589,0.5889,0.5888,0.5886,0.5893,0.5894,0.5895,0.5926,0,0,0.5899,0.59,0,0,0,0,0,0,0,0,0.5889,0.589,0.59,0.5899,0.5898,0.5901,0.5907,0.5919,0.589,0.5893,0.5887,0.5886,0.5897,0.5898,0.5901,0.5926,0.5927,0.5899,0.59,0.5901,0.5901,0,0,0,0,0,0,0,0.5888,0.589,0.5912,0.59,0.5899,0.5893,0.5893,0.5909,0.5901,0.5892,0.589,0.5891,0.5896,0.59,0.5901,0.5927,0.5899,0.5901,0.5901,0.5902,0.5979,0.598,0,0,0,0,0,0,0.5889,0.589,0.5912,0.5912,0.589,0.5894,0.5894,0.5901,0.5901,0.59,0.5892,0.589,0.5898,0.59,0.5901,0.5939,0.5901,0.5902,0.5903,0.5978,0.5979,0.5981,0,0,0,0,0,0,0.5888,0.5891,0.5912,0.5901,0.5903,0.5896,0.5903,0.5901,0.5905,0.5901,0.5899,0.5898,0.5897,0.5899,0.592,0.5938,0.5903,0.5904,0.5976,0.5978,0.598,0.6013,0,0,0,0,0,0,0.5887,0.5891,0.5902,0.5901,0.5903,0.5931,0.5904,0.5902,0.5908,0.5905,0.5905,0.5904,0.5897,0.5919,0.5922,0.594,0.5905,0.5975,0.5977,0.5979,0.601,0.6016,0.602,0,0,0,0,0,0.5886,0.5911,0.5903,0.5906,0.5917,0.5932,0.5933,0.5923,0.5909,0.5921,0.5918,0.5904,0.5936,0.5921,0.5924,0.5943,0.5974,0.5977,0.5979,0.6008,0.6015,0.602,0,0,0,0,0,0,0.5914,0.5911,0.5902,0.5926,0.593,0.5927,0.5941,0.5931,0.5938,0.5935,0.5923,0.5923,0.5947,0.5947,0.593,0.5973,0.5952,0.5956,0.5973,0.5979,0.5984,0.5984,0.5906,0,0,0,0,0,0.5923,0.5935,0.5931,0.5953,0.5955,0.5948,0.5954,0.5947,0.595,0.5951,0.5949,0.5953,0.5964,0.5971,0.5981,0.601,0.601,0.6024,0.6029,0.6033,0.6037,0.6054,0.6061,0.599,0.599,0.599,0,0,0.5942,0.5942,0.595,0.5959,0.5961,0.5974,0.595,0.5964,0.5974,0.5953,0.5973,0.5972,0.5976,0.6001,0.6013,0.6002,0.6057,0.6037,0.604,0.6042,0.6058,0.6065,0.6071,0.5992,0.5992,0.5991,0,0,0.5984,0.5984,0.6003,0.6005,0.6008,0.6003,0.6008,0.6008,0.6006,0.6026,0.6011,0.6023,0.6041,0.6045,0.6049,0.6093,0.6082,0.6097,0.6124,0.6141,0.6146,0.6151,0.6169,0.6175,0.61,0.61,0.61,0,0.6007,0.6026,0.6014,0.6031,0.6036,0.6017,0.6038,0.604,0.6046,0.6051,0.6038,0.6062,0.6063,0.609,0.6101,0.6104,0.611,0.6097,0.6146,0.6151,0.6156,0.6172,0.6179,0.6102,0.6102,0.6102,0.6102,0,0.6055,0.6069,0.6084,0.6091,0.6097,0.6115,0.6107,0.6116,0.6108,0.6104,0.6126,0.6126,0.6136,0.6142,0.6134,0.6168,0.6162,0.6148,0.6127,0.6164,0.618,0.6186,0.6105,0.6104,0.6104,0.6103,0,0,0.6115,0.6115,0.6121,0.6125,0.6127,0.6137,0.6155,0.6165,0.6173,0.6178,0.6193,0.621,0.6197,0.6202,0.6195,0.6209,0.6246,0.6194,0.6194,0.6205,0.6287,0.6298,0.6306,0.6238,0.6239,0.624,0.6287,0,0.6157,0.6187,0.6178,0.6208,0.6222,0.6204,0.622,0.6224,0.6221,0.6232,0.623,0.6242,0.6224,0.6227,0.6241,0.6239,0.6263,0.6235,0.6254,0.6255,0.6255,0.6313,0.6326,0.637,0.6293,0.6294,0.6294,0,0.621,0.6217,0.625,0.6251,0.6256,0.627,0.6279,0.629,0.6294,0.6291,0.6297,0.6287,0.6305,0.6283,0.6309,0.6291,0.6298,0.6298,0.63,0.6302,0.6278,0.632,0.6383,0.6391,0.6303,0.6303,0.6302,0,0.6253,0.627,0.6292,0.6296,0.6297,0.6308,0.6309,0.6312,0.6319,0.6327,0.6332,0.6341,0.6347,0.6356,0.6349,0.6333,0.6377,0.6354,0.6377,0.6377,0.6388,0.6388,0.6456,0.6389,0.6389,0.6389,0.6389,0,0.6302,0.6322,0.6312,0.6326,0.6349,0.6338,0.6362,0.6361,0.6364,0.6378,0.6363,0.6377,0.6366,0.6379,0.6373,0.6397,0.6399,0.6399,0.6397,0.6401,0.6402,0.6407,0.6404,0.6391,0.6391,0.639,0.639,0,0.6354,0.6347,0.6371,0.637,0.6371,0.6388,0.6388,0.6401,0.6398,0.6416,0.6419,0.6414,0.6429,0.6423,0.6438,0.6434,0.6465,0.6459,0.6464,0.6463,0.6487,0.6486,0.6563,0.6573,0.6498,0.6499,0.65,0,0.6386,0.6402,0.6404,0.6412,0.6414,0.6427,0.6435,0.6425,0.6433,0.644,0.6453,0.6466,0.6476,0.6501,0.6499,0.6511,0.6506,0.6532,0.6508,0.6512,0.6509,0.6509,0.6511,0.6537,0.6538,0.6539,0.6539,0,0.6446,0.6442,0.6453,0.6463,0.6472,0.648,0.6486,0.6494,0.6484,0.6495,0.6509,0.6517,0.6533,0.6547,0.6558,0.656,0.6549,0.6547,0.6553,0.6558,0.6561,0.6562,0.648,0.6545,0.6545,0.6544,0.6544,0.6544,0.649,0.6504,0.6508,0.6521,0.6525,0.6531,0.6544,0.6542,0.6555,0.6567,0.656,0.6578,0.6583,0.6596,0.66,0.6614,0.6604,0.6613,0.6616,0.6618,0.6623,0.6558,0.6616,0.6616,0.6616,0.6616,0.6615,0,0.655,0.6552,0.6564,0.6574,0.6584,0.6572,0.6579,0.6589,0.6605,0.661,0.662,0.6638,0.6652,0.6652,0.6665,0.6677,0.6672,0.6681,0.6681,0.6682,0.663,0.6624,0.6684,0.6684,0.6684,0.6684,0.6684,0.6684,0.6583,0.6607,0.6604,0.6629,0.6631,0.6648,0.6653,0.666,0.6664,0.6685,0.6696,0.6695,0.6699,0.6712,0.6725,0.6724,0.6731,0.6742,0.674,0.6692,0.6685,0.6679,0.6673,0.6743,0.6743,0.6791,0.6791,0.6792]},{"header":{"parameterUnit":"m.s-1","parameterCategory":1,"la1":30.2991,"la2":30.254,"lo1":-89.0895,"lo2":-89.0444,"dy":0.0017,"dx":0.0017,"nx":28,"ny":28,"refTime":"2024-02-25T09:00:00:Z","depth":0,"parameterNumber":3,"parameterNumberName":"V-component_of_WINDS"},"data":[0,0,0,0,0,0,0,0,0,0,0,0,0,0,0,0,0,0,0,0,0,0,0,0,0,0,0,0,0,0,0,0,0,0,0,0,0,0,0,0,0,0,0,0,0,0,0,0,0,0,0,0,0,0,0,0,0,0,-2.264,-2.2641,0,-2.275,-2.2752,-2.2753,-2.2752,-2.2751,-2.2749,-2.2748,-2.2859,-2.2863,-2.2867,0,0,0,0,0,0,0,0,0,0,0,0,0,-2.2426,-2.243,-2.264,-2.2641,-2.2643,-2.275,-2.2752,-2.2753,-2.2753,-2.2751,-2.2749,-2.2747,-2.2857,-2.2862,-2.2868,0,0,0,0,0,0,0,0,0,0,0,0,0,-2.2526,-2.2431,-2.264,-2.2655,-2.2658,-2.275,-2.2752,-2.2754,-2.2753,-2.2751,-2.2749,-2.2747,-2.2856,-2.2862,-2.2868,-2.2951,0,0,-2.2888,-2.2891,0,0,0,0,0,0,0,0,-2.252,-2.2534,-2.2652,-2.2654,-2.2657,-2.2735,-2.2717,-2.282,-2.2753,-2.2717,-2.2748,-2.2745,-2.2819,-2.2829,-2.2854,-2.2957,-2.2961,-2.2889,-2.2892,-2.2895,-2.2897,0,0,0,0,0,0,0,-2.2513,-2.2529,-2.2683,-2.2653,-2.2657,-2.2656,-2.2668,-2.2737,-2.2779,-2.272,-2.272,-2.2733,-2.282,-2.2848,-2.2857,-2.2963,-2.2888,-2.2894,-2.2898,-2.2901,-2.314,-2.3142,0,0,0,0,0,0,-2.2504,-2.2523,-2.268,-2.2687,-2.2582,-2.2662,-2.2675,-2.2712,-2.2778,-2.2786,-2.2735,-2.2733,-2.2838,-2.2849,-2.286,-2.2962,-2.2895,-2.2901,-2.2905,-2.3137,-2.3141,-2.3143,0,0,0,0,0,0,-2.2499,-2.2518,-2.2675,-2.2605,-2.2625,-2.2668,-2.271,-2.2716,-2.2743,-2.279,-2.2797,-2.2755,-2.2837,-2.2851,-2.2929,-2.2966,-2.2904,-2.291,-2.3135,-2.3138,-2.3142,-2.3167,0,0,0,0,0,0,-2.2493,-2.2516,-2.2548,-2.2606,-2.2629,-2.2743,-2.2712,-2.272,-2.2755,-2.2753,-2.2811,-2.2818,-2.2836,-2.292,-2.2936,-2.2974,-2.2915,-2.3131,-2.3136,-2.3141,-2.3163,-2.3171,-2.3178,0,0,0,0,0,-2.2485,-2.255,-2.255,-2.2569,-2.2671,-2.2745,-2.2758,-2.2778,-2.2758,-2.279,-2.282,-2.2816,-2.296,-2.2927,-2.2946,-2.2986,-2.3129,-2.3135,-2.314,-2.3159,-2.3169,-2.3178,0,0,0,0,0,0,-2.2494,-2.2558,-2.2558,-2.2644,-2.2689,-2.2745,-2.2786,-2.2788,-2.2839,-2.2835,-2.2858,-2.2871,-2.2948,-2.2975,-2.2938,-2.3071,-2.3042,-2.3051,-2.305,-2.306,-2.3067,-2.3059,-2.292,0,0,0,0,0,-2.2507,-2.2563,-2.2615,-2.2685,-2.2708,-2.2744,-2.2777,-2.2789,-2.2836,-2.2855,-2.289,-2.2936,-2.2991,-2.3027,-2.3081,-2.3167,-2.3179,-2.3204,-2.3212,-2.3217,-2.3225,-2.3273,-2.3285,-2.3162,-2.3162,-2.3161,0,0,-2.2532,-2.2574,-2.2607,-2.2688,-2.2725,-2.2782,-2.2759,-2.282,-2.2863,-2.2864,-2.2939,-2.2967,-2.302,-2.3102,-2.314,-2.3127,-2.3262,-2.3225,-2.3229,-2.3234,-2.328,-2.3292,-2.3302,-2.3165,-2.3165,-2.3164,0,0,-2.2607,-2.2645,-2.2708,-2.2745,-2.2801,-2.2824,-2.2839,-2.2895,-2.2914,-2.2991,-2.2993,-2.3043,-2.3138,-2.3176,-2.3207,-2.3298,-2.3296,-2.3315,-2.3354,-2.34,-2.341,-2.3418,-2.3451,-2.3462,-2.3322,-2.3323,-2.3323,0,-2.2631,-2.2718,-2.2739,-2.2801,-2.2837,-2.2842,-2.2906,-2.294,-2.3011,-2.3035,-2.3019,-2.3139,-2.3175,-2.3266,-2.3289,-2.3314,-2.3332,-2.3308,-2.3407,-2.3416,-2.3424,-2.3455,-2.3467,-2.3324,-2.3324,-2.3324,-2.3324,0,-2.2745,-2.2805,-2.2849,-2.2918,-2.2958,-2.3021,-2.3052,-2.309,-2.3099,-2.3124,-2.3202,-2.3245,-2.3307,-2.333,-2.3339,-2.3423,-2.3413,-2.3402,-2.3373,-2.3437,-2.3467,-2.3479,-2.3327,-2.3326,-2.3326,-2.3325,0,0,-2.2828,-2.2909,-2.2925,-2.2956,-2.3019,-2.3066,-2.3128,-2.3191,-2.3223,-2.3272,-2.3325,-2.3406,-2.3396,-2.3432,-2.3445,-2.3486,-2.3555,-2.347,-2.3471,-2.3484,-2.3651,-2.3658,-2.3672,-2.3555,-2.3557,-2.3559,-2.3646,0,-2.2909,-2.3022,-2.3044,-2.3141,-2.3197,-2.3203,-2.3257,-2.3301,-2.3327,-2.3377,-2.3405,-2.3462,-2.3445,-2.3467,-2.3508,-2.3538,-2.3589,-2.3532,-2.3603,-2.3606,-2.359,-2.3687,-2.3695,-2.3776,-2.3658,-2.366,-2.3661,0,-2.3019,-2.3072,-2.3175,-2.3231,-2.3255,-2.3304,-2.3363,-2.3412,-2.3462,-2.3478,-2.3518,-2.3527,-2.3592,-2.3561,-2.3651,-2.3612,-2.3643,-2.3662,-2.3666,-2.3672,-2.3637,-2.3696,-2.3802,-2.3814,-2.368,-2.3678,-2.3677,0,-2.3069,-2.3166,-2.324,-2.3267,-2.3334,-2.3368,-2.3398,-2.3446,-2.3483,-2.3534,-2.3558,-2.3616,-2.3648,-2.3693,-2.3717,-2.3692,-2.3805,-2.3776,-2.3819,-2.3819,-2.3842,-2.384,-2.3953,-2.3863,-2.3863,-2.3862,-2.3862,0,-2.3158,-2.322,-2.3263,-2.3309,-2.338,-2.3404,-2.3473,-2.3502,-2.3546,-2.3597,-2.3605,-2.3653,-2.3682,-2.3734,-2.3753,-2.3825,-2.3839,-2.3853,-2.3857,-2.3852,-2.385,-2.3872,-2.3867,-2.3866,-2.3865,-2.3864,-2.3864,0,-2.3225,-2.3256,-2.3338,-2.3395,-2.3411,-2.3461,-2.351,-2.3554,-2.358,-2.3645,-2.3661,-2.3702,-2.3763,-2.3792,-2.3868,-2.3881,-2.3962,-2.3963,-2.3945,-2.3947,-2.3988,-2.3984,-2.4119,-2.4138,-2.4035,-2.4036,-2.4037,0,-2.3279,-2.3327,-2.3391,-2.3426,-2.3457,-2.3514,-2.3551,-2.3578,-2.3616,-2.3678,-2.3715,-2.3777,-2.3828,-2.3926,-2.3962,-2.402,-2.4022,-2.4065,-2.403,-2.4024,-2.4022,-2.4019,-2.4024,-2.4071,-2.4072,-2.4073,-2.4074,0,-2.3371,-2.3385,-2.3439,-2.3499,-2.3544,-2.3593,-2.364,-2.3668,-2.3702,-2.3745,-2.3809,-2.3849,-2.3927,-2.3988,-2.4049,-2.4079,-2.4082,-2.4085,-2.4098,-2.4092,-2.408,-2.4087,-2.3962,-2.4081,-2.408,-2.408,-2.4079,-2.4079,-2.3433,-2.3477,-2.3529,-2.3589,-2.3628,-2.3673,-2.3717,-2.375,-2.3803,-2.387,-2.3882,-2.395,-2.3999,-2.4082,-2.4114,-2.4167,-2.4156,-2.4175,-2.418,-2.4184,-2.4186,-2.4073,-2.4178,-2.4178,-2.4178,-2.4177,-2.4177,0,-2.3526,-2.356,-2.3616,-2.3682,-2.373,-2.373,-2.3783,-2.3822,-2.3882,-2.3929,-2.3979,-2.4053,-2.4113,-2.4154,-2.4214,-2.4249,-2.4252,-2.4264,-2.4261,-2.4268,-2.4192,-2.4175,-2.4261,-2.4261,-2.4261,-2.4261,-2.4261,-2.4261,-2.358,-2.3654,-2.3674,-2.3768,-2.3801,-2.3868,-2.3898,-2.3939,-2.3977,-2.4059,-2.4109,-2.4136,-2.418,-2.4245,-2.43,-2.431,-2.4332,-2.4344,-2.4354,-2.4282,-2.4273,-2.4265,-2.4249,-2.4349,-2.4349,-2.4426,-2.4427,-2.4427]}]]